[[{"header":{"parameterUnit":"m.s-1","parameterCategory":1,"la1":30.2991,"la2":30.254,"lo1":-89.0895,"lo2":-89.0444,"dy":0.0017,"dx":0.0017,"nx":28,"ny":28,"refTime":"2023-09-08T21:00:00:Z","depth":0,"parameterNumber":2,"parameterNumberName":"U-component_of_WINDS"},"data":[0,0,0,0,0,0,0,0,0,0,0,0,0,0,0,0,0,0,0,0,0,0,0,0,0,0,0,0,0,0,0,0,0,0,0,0,0,0,0,0,0,0,0,0,0,0,0,0,0,0,0,0,0,0,0,0,0,0,0.0061,0.0062,0,0.0091,0.0092,0.0092,0.0073,0.0072,0.0071,0.007,0.0103,0.0105,0.0106,0,0,0,0,0,0,0,0,0,0,0,0,0,-0.0011,-0.0009,0.0061,0.0062,0.0062,0.0091,0.0092,0.0092,0.0073,0.0072,0.0071,0.007,0.0102,0.0104,0.0106,0,0,0,0,0,0,0,0,0,0,0,0,0,0.002,-0.0009,0.0061,0.0056,0.0056,0.0091,0.0092,0.0092,0.0073,0.0072,0.0071,0.007,0.0102,0.0104,0.0107,0.0149,0,0,0.0114,0.0116,0,0,0,0,0,0,0,0,0.0018,0.0023,0.0057,0.0057,0.0056,0.0077,0.0078,0.0111,0.0074,0.0067,0.007,0.0069,0.0096,0.0098,0.0107,0.0151,0.0152,0.0115,0.0116,0.0117,0.0118,0,0,0,0,0,0,0,0.0016,0.0021,0.0073,0.0057,0.0057,0.0053,0.0056,0.0084,0.0088,0.0067,0.0066,0.007,0.0095,0.0105,0.0108,0.0153,0.0115,0.0117,0.0118,0.0119,0.0233,0.0234,0,0,0,0,0,0,0.0014,0.002,0.0072,0.0074,0.0034,0.0055,0.0059,0.0072,0.0088,0.0089,0.0071,0.0069,0.0101,0.0105,0.0109,0.016,0.0117,0.012,0.0121,0.0232,0.0233,0.0235,0,0,0,0,0,0,0.0013,0.0019,0.0071,0.0047,0.0053,0.0058,0.0073,0.0073,0.0083,0.0091,0.0091,0.008,0.01,0.0105,0.0139,0.0161,0.0121,0.0123,0.023,0.0232,0.0234,0.0262,0,0,0,0,0,0,0.0011,0.0019,0.0035,0.0047,0.0054,0.0101,0.0074,0.0075,0.0087,0.0084,0.0099,0.01,0.0099,0.0136,0.0142,0.0164,0.0125,0.0228,0.0231,0.0233,0.026,0.0265,0.027,0,0,0,0,0,0.0008,0.0042,0.0036,0.0042,0.0074,0.0102,0.0106,0.0104,0.0089,0.0105,0.011,0.01,0.0157,0.0139,0.0146,0.0169,0.0227,0.023,0.0233,0.0257,0.0264,0.027,0,0,0,0,0,0,0.0032,0.0043,0.0037,0.0075,0.0088,0.0099,0.0119,0.0111,0.0129,0.0126,0.0123,0.0127,0.0162,0.0169,0.0149,0.0211,0.019,0.0195,0.0205,0.0212,0.0217,0.0215,0.0127,0,0,0,0,0,0.0042,0.0063,0.0072,0.0105,0.0111,0.0114,0.0126,0.0123,0.0137,0.0142,0.015,0.0164,0.0185,0.0199,0.0219,0.026,0.0264,0.0279,0.0285,0.0289,0.0293,0.0316,0.0324,0.0246,0.0246,0.0246,0,0,0.0062,0.0071,0.0084,0.011,0.0119,0.0142,0.0119,0.0144,0.016,0.0146,0.0179,0.0185,0.02,0.0238,0.0255,0.0245,0.0316,0.0293,0.0297,0.0299,0.032,0.0328,0.0334,0.0248,0.0248,0.0247,0,0,0.0111,0.0119,0.0147,0.0157,0.0172,0.0174,0.018,0.0193,0.0196,0.0229,0.0218,0.0239,0.0275,0.0286,0.0297,0.035,0.0341,0.0356,0.0384,0.0406,0.0413,0.0418,0.0437,0.0444,0.0361,0.0361,0.0361,0,0.0134,0.0167,0.0163,0.0189,0.02,0.0188,0.0217,0.0227,0.0247,0.0256,0.0244,0.0289,0.0299,0.0339,0.0352,0.0361,0.0369,0.0355,0.0412,0.0417,0.0422,0.044,0.0448,0.0362,0.0362,0.0362,0.0362,0,0.0195,0.0218,0.024,0.0259,0.0273,0.03,0.0301,0.0316,0.0312,0.0315,0.0349,0.0359,0.0381,0.0391,0.0387,0.0431,0.0424,0.0412,0.039,0.0431,0.0449,0.0455,0.0365,0.0364,0.0364,0.0363,0,0,0.026,0.0277,0.0285,0.0293,0.0309,0.0327,0.0353,0.0374,0.0387,0.0402,0.0425,0.0456,0.0445,0.0457,0.0454,0.0474,0.0515,0.0459,0.046,0.0469,0.0564,0.0574,0.0582,0.0509,0.0511,0.0512,0.0563,0,0.0309,0.0355,0.0353,0.0396,0.0418,0.0406,0.043,0.0442,0.0446,0.0465,0.0469,0.0491,0.0475,0.0482,0.0501,0.0506,0.0534,0.0502,0.0531,0.0532,0.0528,0.0591,0.06,0.0648,0.057,0.0571,0.0572,0,0.0373,0.0389,0.0435,0.0447,0.0456,0.0477,0.0496,0.0514,0.0528,0.0529,0.0543,0.0537,0.0565,0.0542,0.0581,0.0559,0.0571,0.0575,0.0577,0.058,0.0555,0.0595,0.0664,0.0671,0.0582,0.0581,0.0581,0,0.0416,0.0449,0.0481,0.0489,0.0503,0.0518,0.0525,0.0538,0.055,0.0567,0.0576,0.0596,0.0607,0.0623,0.0623,0.0606,0.0662,0.0639,0.0664,0.0664,0.0677,0.0676,0.0748,0.0684,0.0684,0.0684,0.0683,0,0.0471,0.05,0.05,0.0519,0.0551,0.0548,0.058,0.0585,0.0596,0.0617,0.0608,0.0628,0.0627,0.0648,0.0648,0.068,0.0685,0.0687,0.0687,0.0688,0.0688,0.0696,0.0693,0.0685,0.0685,0.0685,0.0684,0,0.0524,0.0526,0.0559,0.057,0.0574,0.0597,0.0606,0.0625,0.0628,0.0654,0.0661,0.0665,0.0689,0.069,0.0718,0.0718,0.0757,0.0753,0.0752,0.0751,0.0776,0.0774,0.0856,0.0867,0.0795,0.0796,0.0797,0,0.056,0.0581,0.0594,0.0607,0.0615,0.0636,0.0649,0.0647,0.0661,0.0678,0.0695,0.0718,0.0735,0.0773,0.078,0.08,0.0797,0.0824,0.08,0.0801,0.0798,0.0796,0.0799,0.0829,0.083,0.0831,0.0831,0,0.0623,0.0622,0.0641,0.066,0.0675,0.069,0.0704,0.0715,0.0715,0.0731,0.0755,0.0768,0.0796,0.0819,0.0839,0.0847,0.0839,0.0839,0.0846,0.0847,0.0846,0.0847,0.0765,0.0837,0.0836,0.0836,0.0836,0.0835,0.0668,0.0687,0.0699,0.072,0.073,0.0743,0.0761,0.0766,0.0786,0.0808,0.0806,0.0832,0.0845,0.0872,0.0881,0.0902,0.0893,0.0902,0.0905,0.0908,0.091,0.0842,0.0905,0.0905,0.0905,0.0905,0.0905,0,0.073,0.0738,0.0757,0.0777,0.0793,0.0784,0.0799,0.0814,0.0837,0.085,0.0867,0.0895,0.0916,0.0924,0.0946,0.0961,0.0958,0.0966,0.0965,0.0967,0.0917,0.0909,0.0968,0.0968,0.0968,0.0968,0.0968,0.0968,0.0765,0.0796,0.0797,0.0833,0.084,0.0865,0.0875,0.0887,0.0897,0.0928,0.0946,0.0951,0.0962,0.0984,0.1004,0.1005,0.1014,0.1024,0.1024,0.0977,0.0971,0.0965,0.0957,0.1026,0.1026,0.1073,0.1073,0.1074]},{"header":{"parameterUnit":"m.s-1","parameterCategory":1,"la1":30.2991,"la2":30.254,"lo1":-89.0895,"lo2":-89.0444,"dy":0.0017,"dx":0.0017,"nx":28,"ny":28,"refTime":"2023-09-08T21:00:00:Z","depth":0,"parameterNumber":3,"parameterNumberName":"V-component_of_WINDS"},"data":[0,0,0,0,0,0,0,0,0,0,0,0,0,0,0,0,0,0,0,0,0,0,0,0,0,0,0,0,0,0,0,0,0,0,0,0,0,0,0,0,0,0,0,0,0,0,0,0,0,0,0,0,0,0,0,0,0,0,-1.5846,-1.5847,0,-1.5935,-1.5936,-1.5937,-1.5953,-1.5953,-1.5952,-1.5951,-1.6042,-1.6045,-1.6048,0,0,0,0,0,0,0,0,0,0,0,0,0,-1.5689,-1.5691,-1.5846,-1.5847,-1.5848,-1.5935,-1.5936,-1.5938,-1.5953,-1.5953,-1.5952,-1.5951,-1.6041,-1.6044,-1.6048,0,0,0,0,0,0,0,0,0,0,0,0,0,-1.5765,-1.5692,-1.5846,-1.5867,-1.5869,-1.5935,-1.5936,-1.5938,-1.5954,-1.5953,-1.5951,-1.595,-1.6039,-1.6044,-1.6049,-1.6099,0,0,-1.6063,-1.6065,0,0,0,0,0,0,0,0,-1.5761,-1.5771,-1.5862,-1.5865,-1.5868,-1.5932,-1.5914,-1.5992,-1.5954,-1.5922,-1.5951,-1.595,-1.6006,-1.6013,-1.6033,-1.6104,-1.6107,-1.6063,-1.6066,-1.6068,-1.6069,0,0,0,0,0,0,0,-1.5756,-1.5767,-1.5881,-1.5864,-1.5867,-1.5871,-1.5881,-1.5929,-1.5969,-1.5924,-1.5926,-1.5936,-1.6007,-1.6028,-1.6035,-1.6109,-1.6063,-1.6067,-1.607,-1.6072,-1.6227,-1.6229,0,0,0,0,0,0,-1.5747,-1.5763,-1.5878,-1.5884,-1.5811,-1.5875,-1.5886,-1.5913,-1.5968,-1.5976,-1.5937,-1.5937,-1.6021,-1.6029,-1.6038,-1.6103,-1.6068,-1.6072,-1.6075,-1.6226,-1.6228,-1.6229,0,0,0,0,0,0,-1.5743,-1.5757,-1.5875,-1.5824,-1.5839,-1.5879,-1.5909,-1.5915,-1.5936,-1.5978,-1.5985,-1.5951,-1.602,-1.6031,-1.6084,-1.6106,-1.6074,-1.6079,-1.6224,-1.6227,-1.6228,-1.6231,0,0,0,0,0,0,-1.5739,-1.5755,-1.5775,-1.5824,-1.5842,-1.592,-1.591,-1.5918,-1.5944,-1.5944,-1.5993,-1.6,-1.602,-1.6077,-1.6089,-1.6112,-1.6082,-1.6223,-1.6225,-1.6228,-1.6229,-1.6233,-1.6236,0,0,0,0,0,-1.5733,-1.5772,-1.5776,-1.579,-1.5867,-1.5921,-1.5931,-1.5954,-1.5945,-1.5966,-1.5993,-1.5998,-1.6101,-1.6083,-1.6096,-1.612,-1.6222,-1.6225,-1.6228,-1.6228,-1.6232,-1.6236,0,0,0,0,0,0,-1.5724,-1.5779,-1.5784,-1.584,-1.5876,-1.5923,-1.595,-1.5958,-1.5996,-1.5995,-1.6022,-1.6032,-1.6084,-1.6107,-1.6086,-1.6173,-1.6161,-1.6167,-1.6156,-1.6161,-1.6164,-1.6158,-1.6086,0,0,0,0,0,-1.5728,-1.5767,-1.5813,-1.5858,-1.5876,-1.591,-1.5934,-1.5948,-1.5987,-1.6002,-1.6033,-1.6069,-1.611,-1.6137,-1.6176,-1.6232,-1.6244,-1.6255,-1.6259,-1.6261,-1.6266,-1.6299,-1.6305,-1.6239,-1.6239,-1.6239,0,0,-1.5738,-1.5773,-1.5796,-1.5857,-1.5886,-1.5927,-1.5922,-1.5965,-1.5995,-1.6008,-1.6061,-1.6084,-1.6127,-1.6182,-1.6208,-1.6203,-1.6287,-1.6265,-1.6267,-1.6271,-1.6303,-1.6309,-1.6315,-1.6241,-1.6241,-1.624,0,0,-1.5777,-1.5806,-1.5848,-1.5878,-1.5923,-1.5945,-1.5955,-1.6002,-1.6019,-1.6072,-1.6083,-1.6119,-1.6188,-1.6219,-1.6243,-1.6294,-1.6301,-1.6306,-1.6324,-1.6356,-1.6361,-1.6366,-1.6385,-1.6392,-1.6311,-1.6311,-1.6311,0,-1.5783,-1.5844,-1.5868,-1.5911,-1.5938,-1.5952,-1.5994,-1.6022,-1.6077,-1.6096,-1.6089,-1.6178,-1.6207,-1.627,-1.6283,-1.6301,-1.6314,-1.6301,-1.6358,-1.6363,-1.6368,-1.6387,-1.6394,-1.6311,-1.6311,-1.6311,-1.6311,0,-1.5851,-1.5893,-1.5921,-1.5975,-1.6005,-1.6047,-1.6077,-1.6105,-1.6117,-1.614,-1.6194,-1.623,-1.6278,-1.6294,-1.6306,-1.6359,-1.6355,-1.6353,-1.6342,-1.6375,-1.6393,-1.64,-1.6312,-1.6312,-1.6312,-1.6311,0,0,-1.5886,-1.5954,-1.5964,-1.5989,-1.604,-1.6073,-1.6116,-1.6164,-1.6187,-1.6225,-1.6262,-1.6321,-1.632,-1.6348,-1.6363,-1.6391,-1.643,-1.6386,-1.6387,-1.6394,-1.6493,-1.6495,-1.6503,-1.6435,-1.6436,-1.6437,-1.649,0,-1.5932,-1.601,-1.6033,-1.6099,-1.6139,-1.6153,-1.619,-1.6226,-1.6248,-1.6286,-1.6311,-1.6353,-1.6347,-1.6364,-1.6392,-1.642,-1.6451,-1.6416,-1.6471,-1.6472,-1.6461,-1.6513,-1.6515,-1.6563,-1.6497,-1.6499,-1.6499,0,-1.5996,-1.6036,-1.6106,-1.6153,-1.6171,-1.6204,-1.625,-1.6286,-1.6326,-1.6341,-1.6372,-1.6385,-1.6431,-1.6416,-1.648,-1.6456,-1.6479,-1.6496,-1.6499,-1.6506,-1.6489,-1.6523,-1.6579,-1.6587,-1.6511,-1.651,-1.6509,0,-1.6018,-1.6088,-1.614,-1.6161,-1.6217,-1.624,-1.6264,-1.6304,-1.6331,-1.6371,-1.639,-1.6434,-1.6458,-1.6493,-1.6518,-1.6504,-1.658,-1.6567,-1.6594,-1.6594,-1.6611,-1.6609,-1.6673,-1.6623,-1.6623,-1.6623,-1.6623,0,-1.6067,-1.611,-1.6151,-1.6182,-1.6231,-1.6256,-1.6303,-1.6328,-1.6363,-1.64,-1.6414,-1.6449,-1.6479,-1.6517,-1.6537,-1.6588,-1.6598,-1.6612,-1.6617,-1.6612,-1.661,-1.6628,-1.6626,-1.6625,-1.6624,-1.6624,-1.6623,0,-1.61,-1.6128,-1.6186,-1.6234,-1.6247,-1.6281,-1.6322,-1.6354,-1.6377,-1.6424,-1.6436,-1.6473,-1.6519,-1.6547,-1.6605,-1.6618,-1.6675,-1.6677,-1.6661,-1.6664,-1.669,-1.6688,-1.6769,-1.6782,-1.6722,-1.6722,-1.6723,0,-1.613,-1.6164,-1.6216,-1.6242,-1.6267,-1.6308,-1.6337,-1.6363,-1.6392,-1.6441,-1.6467,-1.6514,-1.6554,-1.6627,-1.6659,-1.6703,-1.6708,-1.6734,-1.6715,-1.6709,-1.6711,-1.6709,-1.6713,-1.6737,-1.6738,-1.6738,-1.6738,0,-1.6182,-1.6195,-1.6236,-1.6282,-1.6315,-1.6353,-1.639,-1.641,-1.6443,-1.6475,-1.6523,-1.6553,-1.6613,-1.666,-1.6708,-1.6733,-1.6742,-1.6744,-1.6753,-1.6749,-1.6739,-1.6746,-1.6672,-1.6742,-1.6742,-1.6742,-1.6741,-1.6741,-1.6216,-1.6247,-1.6289,-1.6334,-1.6365,-1.6399,-1.6432,-1.6459,-1.65,-1.6551,-1.6564,-1.6615,-1.6655,-1.672,-1.6746,-1.6786,-1.6782,-1.6795,-1.6798,-1.6802,-1.6803,-1.6731,-1.6795,-1.6795,-1.6794,-1.6794,-1.6794,0,-1.627,-1.6298,-1.6339,-1.6391,-1.6427,-1.6432,-1.6473,-1.6503,-1.6547,-1.6584,-1.6623,-1.6679,-1.6725,-1.676,-1.6807,-1.6832,-1.6838,-1.6844,-1.6843,-1.6849,-1.6803,-1.6791,-1.6839,-1.6839,-1.6839,-1.6839,-1.6839,-1.6839,-1.6302,-1.6355,-1.6373,-1.6442,-1.6469,-1.6519,-1.6543,-1.6575,-1.6605,-1.6667,-1.6705,-1.6728,-1.6765,-1.6815,-1.6858,-1.6867,-1.6884,-1.689,-1.69,-1.6857,-1.6852,-1.6848,-1.6837,-1.6893,-1.6893,-1.6943,-1.6944,-1.6944]}]]